• In United Kingdom
  • List of Countries
  • For 7 days
  • Water Temperature
  • Satellite Maps
  • Weather Map
  • Weather Widgets
  • user-avatar
    Login

    Hourly Weather San Juan

    Today, 25 November, Saturday

    Time Temperature Precipitation Wind Pressure Humidity
    00:00 +24°C° 0 mm 2 mps 707 mmHg 26%
    01:00 +23°C° 0 mm 1 mps 707 mmHg 28%
    02:00 +22°C° 0 mm 1 mps 707 mmHg 29%
    03:00 +22°C° 0 mm 1 mps 707 mmHg 31%
    04:00 +21°C° 0 mm 1 mps 707 mmHg 33%
    05:00 +22°C° 0 mm 1 mps 707 mmHg 30%
    06:00 +24°C° 0 mm 1 mps 708 mmHg 27%
    07:00 +26°C° 0 mm 1 mps 708 mmHg 24%
    08:00 +27°C° 0 mm 2 mps 708 mmHg 22%
    09:00 +28°C° 0 mm 2 mps 708 mmHg 20%
    10:00 +29°C° 0 mm 2 mps 708 mmHg 17%
    11:00 +30°C° 0 mm 2 mps 707 mmHg 16%
    12:00 +31°C° 0 mm 3 mps 706 mmHg 15%
    13:00 +33°C° 0 mm 3 mps 706 mmHg 14%
    14:00 +34°C° 0 mm 3 mps 705 mmHg 13%
    15:00 +34°C° 0 mm 3 mps 705 mmHg 13%
    16:00 +34°C° 0 mm 3 mps 704 mmHg 13%
    17:00 +33°C° 0 mm 3 mps 704 mmHg 14%
    18:00 +31°C° 0 mm 3 mps 705 mmHg 16%
    19:00 +30°C° 0 mm 3 mps 705 mmHg 17%
    20:00 +29°C° 0 mm 3 mps 705 mmHg 19%
    21:00 +28°C° 0 mm 2 mps 706 mmHg 20%
    22:00 +28°C° 0 mm 2 mps 706 mmHg 22%
    23:00 +27°C° 0 mm 3 mps 705 mmHg 26%

    Tomorrow, 26 November, Sunday

    Time Temperature Precipitation Wind Pressure Humidity
    00:00 +26°C° 0 mm 3 mps 705 mmHg 30%
    01:00 +25°C° 0 mm 3 mps 704 mmHg 33%
    02:00 +25°C° 0 mm 3 mps 704 mmHg 35%
    03:00 +25°C° 0 mm 3 mps 704 mmHg 36%
    04:00 +24°C° 0 mm 3 mps 704 mmHg 37%
    05:00 +26°C° 0 mm 3 mps 704 mmHg 34%
    06:00 +27°C° 0 mm 3 mps 704 mmHg 30%
    07:00 +28°C° 0 mm 3 mps 704 mmHg 26%
    08:00 +30°C° 0 mm 3 mps 704 mmHg 23%
    09:00 +31°C° 0 mm 3 mps 704 mmHg 21%
    10:00 +34°C° 0 mm 3 mps 703 mmHg 18%
    11:00 +35°C° 0 mm 3 mps 703 mmHg 16%
    12:00 +36°C° 0 mm 3 mps 702 mmHg 14%
    13:00 +37°C° 0 mm 3 mps 701 mmHg 12%
    14:00 +37°C° 0 mm 3 mps 701 mmHg 12%
    15:00 +37°C° 0 mm 3 mps 700 mmHg 12%
    16:00 +37°C° 0 mm 3 mps 700 mmHg 12%
    17:00 +36°C° 0 mm 3 mps 701 mmHg 14%
    18:00 +34°C° 0 mm 3 mps 701 mmHg 15%
    19:00 +33°C° 0 mm 3 mps 702 mmHg 17%
    20:00 +31°C° 0 mm 3 mps 703 mmHg 19%
    21:00 +31°C° 0 mm 3 mps 703 mmHg 21%
    22:00 +30°C° 0 mm 3 mps 704 mmHg 23%
    23:00 +29°C° 0.1 mm 3 mps 704 mmHg 26%

    Day after tomorrow, 27 November, Monday

    Time Temperature Precipitation Wind Pressure Humidity
    00:00 +28°C° 0.1 mm 3 mps 704 mmHg 29%
    01:00 +27°C° 0.1 mm 3 mps 705 mmHg 32%
    02:00 +26°C° 0.3 mm 5 mps 706 mmHg 35%
    03:00 +26°C° 0.3 mm 7 mps 706 mmHg 39%
    04:00 +24°C° 0.3 mm 9 mps 707 mmHg 42%
    05:00 +24°C° 0 mm 10 mps 708 mmHg 36%
    06:00 +23°C° 0 mm 11 mps 709 mmHg 30%
    07:00 +23°C° 0 mm 11 mps 710 mmHg 24%
    08:00 +24°C° 0 mm 10 mps 710 mmHg 25%
    09:00 +24°C° 0 mm 10 mps 710 mmHg 27%
    10:00 +24°C° 0 mm 9 mps 710 mmHg 29%
    11:00 +26°C° 0 mm 8 mps 710 mmHg 27%
    12:00 +27°C° 0 mm 8 mps 709 mmHg 26%
    13:00 +28°C° 0 mm 7 mps 708 mmHg 24%
    14:00 +28°C° 0 mm 6 mps 708 mmHg 24%
    15:00 +28°C° 0 mm 6 mps 707 mmHg 23%
    16:00 +28°C° 0 mm 5 mps 707 mmHg 23%
    17:00 +27°C° 0 mm 5 mps 707 mmHg 24%
    18:00 +26°C° 0 mm 4 mps 708 mmHg 25%
    19:00 +25°C° 0 mm 4 mps 708 mmHg 26%
    20:00 +25°C° 0 mm 3 mps 708 mmHg 26%
    21:00 +24°C° 0 mm 3 mps 709 mmHg 27%
    22:00 +24°C° 0 mm 2 mps 709 mmHg 28%
    23:00 +23°C° 0 mm 2 mps 708 mmHg 29%

    28 November, Tuesday

    Time Temperature Precipitation Wind Pressure Humidity
    00:00 +23°C° 0 mm 2 mps 708 mmHg 30%
    01:00 +22°C° 0 mm 1 mps 707 mmHg 31%
    02:00 +22°C° 0 mm 1 mps 707 mmHg 32%
    03:00 +21°C° 0 mm 1 mps 707 mmHg 33%
    04:00 +21°C° 0 mm 1 mps 707 mmHg 35%
    05:00 +22°C° 0 mm 1 mps 707 mmHg 34%
    06:00 +23°C° 0 mm 1 mps 707 mmHg 34%
    07:00 +24°C° 0 mm 2 mps 708 mmHg 33%
    08:00 +26°C° 0 mm 2 mps 707 mmHg 32%
    09:00 +27°C° 0 mm 2 mps 707 mmHg 32%
    10:00 +28°C° 0 mm 3 mps 707 mmHg 31%
    11:00 +30°C° 0 mm 3 mps 706 mmHg 28%
    12:00 +31°C° 0 mm 3 mps 705 mmHg 26%
    13:00 +33°C° 0 mm 3 mps 704 mmHg 23%
    14:00 +33°C° 0 mm 3 mps 704 mmHg 22%
    15:00 +34°C° 0 mm 3 mps 703 mmHg 22%
    16:00 +34°C° 0 mm 2 mps 703 mmHg 21%
    17:00 +33°C° 0 mm 3 mps 704 mmHg 23%
    18:00 +31°C° 0 mm 3 mps 704 mmHg 24%
    19:00 +30°C° 0 mm 3 mps 705 mmHg 26%
    20:00 +30°C° 0 mm 3 mps 705 mmHg 29%
    21:00 +29°C° 0 mm 3 mps 705 mmHg 33%
    22:00 +28°C° 0 mm 3 mps 706 mmHg 36%
    23:00 +27°C° 0.1 mm 3 mps 705 mmHg 40%

    29 November, Wednesday

    Time Temperature Precipitation Wind Pressure Humidity
    00:00 +27°C° 0.1 mm 2 mps 705 mmHg 44%
    01:00 +26°C° 0.1 mm 2 mps 704 mmHg 48%
    02:00 +26°C° 0 mm 2 mps 704 mmHg 49%
    03:00 +25°C° 0 mm 3 mps 704 mmHg 50%
    04:00 +25°C° 0 mm 3 mps 704 mmHg 51%
    05:00 +26°C° 0 mm 2 mps 704 mmHg 47%
    06:00 +27°C° 0 mm 2 mps 705 mmHg 43%
    07:00 +28°C° 0 mm 2 mps 705 mmHg 39%
    08:00 +29°C° 0.1 mm 2 mps 705 mmHg 35%
    09:00 +31°C° 0.1 mm 2 mps 705 mmHg 31%
    10:00 +32°C° 0.1 mm 2 mps 705 mmHg 28%
    11:00 +34°C° 0.1 mm 3 mps 704 mmHg 25%
    12:00 +35°C° 0.1 mm 3 mps 704 mmHg 22%
    13:00 +36°C° 0.1 mm 4 mps 703 mmHg 20%
    14:00 +36°C° 0.1 mm 4 mps 703 mmHg 20%
    15:00 +36°C° 0.1 mm 4 mps 702 mmHg 21%
    16:00 +36°C° 0.1 mm 4 mps 702 mmHg 21%
    17:00 +35°C° 0.3 mm 3 mps 703 mmHg 24%
    18:00 +34°C° 0.3 mm 3 mps 703 mmHg 26%
    19:00 +33°C° 0.3 mm 3 mps 703 mmHg 28%
    20:00 +32°C° 0.2 mm 4 mps 704 mmHg 33%
    21:00 +30°C° 0.2 mm 5 mps 705 mmHg 38%
    22:00 +28°C° 0.2 mm 6 mps 705 mmHg 43%
    23:00 +28°C° 0.5 mm 5 mps 705 mmHg 47%

    30 November, Thursday

    Time Temperature Precipitation Wind Pressure Humidity
    00:00 +27°C° 0.5 mm 4 mps 705 mmHg 50%
    01:00 +27°C° 0.5 mm 3 mps 705 mmHg 54%
    02:00 +26°C° 0.5 mm 3 mps 704 mmHg 56%
    03:00 +26°C° 0.5 mm 2 mps 704 mmHg 58%
    04:00 +25°C° 0.5 mm 2 mps 704 mmHg 60%
    05:00 +26°C° 0.3 mm 1 mps 705 mmHg 56%
    06:00 +27°C° 0.3 mm 1 mps 705 mmHg 53%
    07:00 +27°C° 0.3 mm 1 mps 705 mmHg 50%
    08:00 +28°C° 0.3 mm 1 mps 704 mmHg 46%
    09:00 +30°C° 0.3 mm 2 mps 704 mmHg 41%
    10:00 +31°C° 0.3 mm 2 mps 703 mmHg 37%
    11:00 +32°C° 0.1 mm 2 mps 702 mmHg 34%
    12:00 +34°C° 0.1 mm 2 mps 702 mmHg 31%
    13:00 +35°C° 0.1 mm 3 mps 701 mmHg 28%
    14:00 +35°C° 0 mm 3 mps 700 mmHg 27%
    15:00 +35°C° 0 mm 3 mps 700 mmHg 26%
    16:00 +36°C° 0 mm 3 mps 699 mmHg 25%
    17:00 +35°C° 0.1 mm 3 mps 700 mmHg 26%
    18:00 +34°C° 0.1 mm 3 mps 700 mmHg 28%
    19:00 +33°C° 0.1 mm 3 mps 701 mmHg 29%
    20:00 +33°C° 0.1 mm 3 mps 701 mmHg 32%
    21:00 +31°C° 0.1 mm 3 mps 701 mmHg 34%
    22:00 +30°C° 0.1 mm 3 mps 701 mmHg 36%
    23:00 +30°C° 0 mm 3 mps 701 mmHg 39%
    Show more